EW7837 Weather Reports


time (UTC)temp
C
wind
direction
speed
KPH
gust
KPH
rain 1hr
cm
rain 24hr
cm
rain mn
cm
humidity
%
barometer
mb
20260831030014 23 251 0.0 0.0 0.00 0.00 0.00 83 1007.7
20260831024507 23 251 0.0 0.0 0.00 0.00 0.00 82 1007.7
20260831023005 24 251 0.0 0.0 0.00 0.00 0.00 81 1007.6
20260831021505 25 251 0.0 0.0 0.00 0.00 0.00 79 1007.5
20260831020005 25 251 0.0 0.0 0.00 0.00 0.00 77 1007.5
20260831014501 25 252 0.0 0.0 0.00 0.00 0.00 77 1007.4
20260831013002 26 251 0.0 0.0 0.00 0.00 0.00 75 1007.5
20260831011500 26 251 0.0 0.0 0.00 0.00 0.00 75 1007.5
20260831010100 26 251 0.0 0.0 0.00 0.00 0.00 73 1007.4
20260831004559 26 248 0.0 0.0 0.00 0.00 0.00 73 1007.5
20260831003100 27 252 0.0 0.0 0.00 0.00 0.00 72 1007.5
20260831001556 27 254 0.0 0.0 0.00 0.00 0.00 71 1007.4
20260831000056 27 261 0.0 0.0 0.00 0.00 0.00 72 1007.6
20260830234604 27 252 0.0 0.0 0.00 0.00 0.00 72 1007.6
20260830233053 27 265 0.0 0.0 0.00 0.00 0.00 71 1007.8
20260830231553 27 250 0.0 0.0 0.00 0.00 0.00 71 1007.7
20260830230052 28 253 0.0 0.0 0.00 0.00 0.00 71 1007.8
20260830224554 28 263 0.0 0.0 0.00 0.00 0.00 70 1007.9
20260830223051 28 259 0.0 0.0 0.00 0.00 0.00 69 1007.9
20260830221550 27 255 0.0 0.0 0.00 0.00 0.00 70 1008.1
20260830220048 27 259 0.0 0.0 0.00 0.00 0.00 71 1008.3
20260830214545 27 233 0.0 0.0 0.00 0.00 0.00 72 1008.4
20260830213046 27 272 0.0 0.0 0.00 0.00 0.00 70 1008.4
20260830211544 27 248 0.0 0.0 0.00 0.00 0.00 68 1008.5
20260830210044 28 267 0.0 0.0 0.00 0.00 0.00 67 1008.8
20260830204542 27 306 0.0 0.0 0.00 0.00 0.00 68 1008.9
20260830203049 27 231 0.0 0.0 0.00 0.00 0.00 67 1009.0
20260830201546 27 260 0.0 0.0 0.00 0.00 0.00 70 1008.9
20260830200036 27 263 1.6 0.0 0.00 0.00 0.00 72 1008.9
20260830194505 27 271 0.0 0.0 0.00 0.00 0.00 72 1009.0
20260830193004 27 250 0.0 0.0 0.00 0.00 0.00 72 1009.1
20260830191603 27 257 0.0 0.0 0.00 0.00 0.00 73 1009.1
20260830190059 27 258 0.0 0.0 0.00 0.00 0.00 73 1009.3
20260830184555 27 250 0.0 0.0 0.00 0.00 0.00 73 1009.1
20260830183106 27 268 0.0 0.0 0.00 0.00 0.00 71 1009.2
20260830181555 27 260 0.0 0.0 0.00 0.00 0.00 72 1009.3
20260830180043 27 261 0.0 0.0 0.00 0.00 0.00 73 1009.3
20260830174538 27 255 0.0 0.0 0.00 0.00 0.00 74 1009.1
20260830173040 27 255 0.0 0.0 0.00 0.00 0.00 74 1008.9
20260830171529 26 255 0.0 0.0 0.00 0.00 0.00 75 1008.9
20260830170024 26 255 0.0 0.0 0.00 0.00 0.00 76 1008.8
20260830164531 26 255 0.0 0.0 0.00 0.00 0.00 78 1008.7
20260830163019 26 255 0.0 0.0 0.00 0.00 0.00 78 1008.7
20260830161614 26 255 0.0 0.0 0.00 0.00 0.00 79 1008.7
20260830160045 25 255 0.0 0.0 0.00 0.00 0.00 82 1008.8
20260830154542 24 255 0.0 0.0 0.00 0.00 0.00 84 1008.8
20260830153041 23 255 0.0 0.0 0.00 0.00 0.00 86 1008.8
20260830151540 23 255 0.0 0.0 0.00 0.00 0.00 87 1008.8
20260830150033 23 255 0.0 0.0 0.00 0.00 0.00 89 1008.8
20260830144527 22 255 0.0 0.0 0.00 0.00 0.00 89 1008.6
20260830143021 22 255 0.0 0.0 0.00 0.00 0.00 90 1008.8
20260830141519 22 255 0.0 0.0 0.00 0.00 0.00 90 1008.6
20260830140016 22 255 0.0 0.0 0.00 0.00 0.00 90 1008.4
20260830134515 22 255 0.0 0.0 0.00 0.00 0.00 89 1008.3
20260830133010 22 255 0.0 0.0 0.00 0.00 0.00 89 1008.1
20260830131510 22 255 0.0 0.0 0.00 0.00 0.00 89 1008.0
20260830130009 22 255 0.0 0.0 0.00 0.00 0.00 89 1008.0
20260830124513 22 255 0.0 0.0 0.00 0.00 0.00 88 1008.0
20260830123003 22 255 0.0 0.0 0.00 0.00 0.00 87 1007.9
20260830121600 23 255 0.0 0.0 0.00 0.00 0.00 88 1007.9
20260830120059 23 255 0.0 0.0 0.00 0.00 0.00 88 1007.9
20260830114617 23 255 0.0 0.0 0.00 0.00 0.00 88 1008.0
20260830113103 23 255 0.0 0.0 0.00 0.00 0.00 88 1007.9
20260830111555 23 254 0.0 0.0 0.00 0.00 0.00 88 1007.9
20260830110053 23 255 0.0 0.0 0.00 0.00 0.00 88 1007.9
20260830104559 23 255 0.0 0.0 0.00 0.00 0.00 88 1007.9
20260830103048 23 255 0.0 0.0 0.00 0.00 0.00 88 1007.8
20260830101550 23 255 0.0 0.0 0.00 0.00 0.00 88 1007.6
20260830100049 23 255 0.0 0.0 0.00 0.00 0.00 88 1007.6
20260830094553 23 255 0.0 0.0 0.00 0.00 0.00 88 1007.7
20260830093027 23 255 0.0 0.0 0.00 0.00 0.00 88 1007.7
20260830091522 23 255 0.0 0.0 0.00 0.00 0.00 88 1007.9
20260830084603 23 255 0.0 0.0 0.00 0.00 0.00 88 1007.9
20260830083108 23 255 0.0 0.0 0.00 0.00 0.00 88 1007.7
20260830081555 23 255 0.0 0.0 0.00 0.00 0.00 89 1007.6
20260830080053 23 255 0.0 0.0 0.00 0.00 0.00 89 1007.9
20260830074552 23 255 0.0 0.0 0.00 0.00 0.00 88 1007.9
20260830073051 23 255 0.0 0.0 0.00 0.00 0.00 88 1007.9
20260830071550 23 255 0.0 0.0 0.00 0.00 0.00 88 1007.9
20260830070056 23 255 0.0 0.0 0.00 0.00 0.00 88 1007.9
20260830064541 23 255 0.0 0.0 0.00 0.00 0.00 87 1007.9
20260830063040 24 255 0.0 0.0 0.00 0.00 0.00 87 1007.9
20260830061539 24 255 0.0 0.0 0.00 0.00 0.00 88 1007.9
20260830060012 24 255 0.0 0.0 0.00 0.00 0.00 87 1007.9
20260830054515 24 255 0.0 0.0 0.00 0.00 0.00 87 1007.9
20260830053008 24 255 0.0 0.0 0.00 0.00 0.00 87 1007.9
20260830051508 24 255 0.0 0.0 0.00 0.00 0.00 86 1007.9
20260830050006 25 255 0.0 0.0 0.00 0.00 0.00 86 1007.9
20260830044505 25 255 0.0 0.0 0.00 0.00 0.00 85 1007.9
20260830043037 25 255 0.0 0.0 0.00 0.00 0.00 84 1007.8
20260830041540 25 255 0.0 0.0 0.00 0.00 0.00 83 1007.7
20260830040032 25 255 0.0 0.0 0.00 0.00 0.00 82 1007.4
20260830034525 26 255 0.0 0.0 0.00 0.00 0.00 80 1007.3
20260830033026 26 255 0.0 0.0 0.00 0.00 0.00 74 1007.0
20260830031520 26 255 0.0 0.0 0.00 0.00 0.00 72 1006.9